NUVIEW ALPHA

Last updated on Mon Sep 07 2026 00:03:02 GMT+0000 (Coordinated Universal Time)

1 62455U 24252B 26249.50402795 -.00000231 00000+0 00000+0 0 9997 2 62455 0.0502 15.1785 0000097 52.6150 16.1394 1.00271150 4648
UTC large
Height (km)
Speed (km/s)
/
Latitude / Longitude
Inclination (degrees)
Orbital Period (minutes)
Azimuth
Elevation
Range (km)
Doppler Factor

Next 0 passes for location: London (51.5072 / 0.1276)

No passes found over London.
NUVIEW ALPHA